Cloud_Cover
12 0 0 0 0 54 100 100 81 26 5 80 76 95 97 43 5 0 0 1 10 0 0 5 5 20 99 100 100 100 100 100 100 98 100 98 100 100
55 58 9 9 7 5 39 79 76 46 18 0 5 5 44 98 87 57 92 92 100 26 5 5 20 50 16 100 100 100 100 100 96 100 100 100 100 100
56 52 40 6 5 5 49 98 95 100 100 69 4 4 29 100 99 100 100 100 80 72 5 100 76 94 100 92 97 100 100 100 100 100 100 100 89 100
100 100 52 37 29 44 79 100 65 67 100 100 99 5 5 5 61 98 100 100 100 100 100 30 100 100 100 100 52 100 100 100 100 100 100 100 100 100
100 99 100 100 70 100 100 100 100 100 99 66 63 91 99 100 100 96 100 100 99 100 100 100 100 100 99 98 5 18 100 100 100 100 100 100 100 94
81 100 100 100 100 100 100 100 100 100 100 98 97 95 96 100 100 100 100 98 100 100 100 100 100 100 76 100 5 5 98 100 100 100 100 96 78 100
100 100 100 100 100 100 100 100 100 100 100 100 100 100 100 99 100 100 100 100 100 100 100 100 84 100 80 74 98 40 38 100 100 100 100 100 97 93
100 84 94 100 100 95 100 98 100 100 100 100 100 100 100 100 100 100 100 100 100 100 100 100 99 100 77 100 100 100 42 100 100 100 100 100 100 100
100 97 100 100 85 100 81 99 87 77 76 89 61 100 100 100 95 100 100 100 100 100 100 100 99 92 100 100 100 100 56 90 100 100 100 100 100 100
100 99 89 85 100 100 86 84 26 81 89 12 70 100 81 100 100 100 100 100 100 100 100 100 100 100 100 100 100 87 55 100 100 100 100 100 100 100
100 78 79 12 100 100 84 5 5 61 100 94 90 92 98 100 48 88 100 100 100 100 100 100 100 100 100 100 100 100 100 100 100 100 100 100 100 100
100 100 94 70 100 100 100 42 5 34 89 100 99 94 99 98 100 99 100 100 100 100 100 100 100 100 100 100 100 100 100 100 100 100 100 100 100 100
100 100 100 97 75 99 57 5 5 68 100 86 100 100 100 50 94 95 98 100 100 100 100 100 100 100 100 100 100 100 100 100 100 100 100 100 100 100
100 100 100 100 79 84 60 5 5 16 95 79 100 100 100 100 100 100 100 100 100 100 100 100 100 100 100 100 100 100 100 100 100 100 100 100 100 100
100 100 100 100 90 84 44 5 5 10 94 100 98 100 100 100 100 100 100 100 100 100 100 100 100 100 100 100 100 100 100 100 100 100 100 100 100 100
100 58 66 44 100 79 24 24 38 57 73 99 100 100 100 100 100 100 100 100 100 100 100 100 100 100 100 100 100 100 100 100 100 100 100 100 100 100
100 100 100 100 100 100 100 100 100 99 100 100 100 100 100 100 100 100 100 100 100 100 100 100 100 100 100 100 100 100 100 100 100 100 100 100 100 100
100 100 100 100 100 100 100 100 100 100 100 100 100 100 100 100 100 100 100 100 100 100 100 100 100 100 100 100 100 100 100 100 100 100 100 100 100 100
100 100 100 100 100 100 100 100 100 100 100 100 100 100 100 100 100 100 100 100 100 100 100 100 100 100 100 100 100 100 100 100 100 100 100 100 100 100
100 100 100 100 100 100 100 100 100 100 100 100 100 100 100 100 100 100 100 100 100 100 100 100 100 100 100 100 100 100 100 100 100 100 100 100 100 100
100 100 100 100 100 100 100 100 100 100 100 100 100 100 100 100 100 100 100 100 100 100 100 100 100 100 100 100 100 100 100 100 100 100 100 100 100 100
100 100 100 100 100 100 100 100 100 100 100 100 100 100 100 100 100 100 100 100 100 100 100 100 100 100 100 100 100 100 100 100 100 100 100 100 100 100
100 100 100 100 100 100 100 100 100 100 100 100 100 100 100 100 100 100 100 100 100 100 100 100 100 100 100 100 100 100 100 100 100 100 100 75 100 99